User: anonymous   Login
Location: Innerarity Island Observatory
(30.3139°N, 87.4867°W)
Time: 19:57:01
(UTC-06:00)
Language:

JAS-2 - Orbit

View from above orbital plane
View from above orbital plane
View from above satellite
View from above satellite

Ground track
Ground track

The orbit data is extracted from the following two-line orbital elements,

1 24278U 96046B   14353.54762102 -.00000036  00000-0 -19729-5 0  5418
2 24278 098.5197 341.8450 0350752 176.5399 305.6345 13.53039730905735
Epoch (UTC): 19 December 2014 13:08:34
Eccentricity: 0.0350752
inclination: 98.5197°
perigee height: 800 km
apogee height: 1322 km
right ascension of ascending node: 341.8450°
argument of perigee: 176.5399°
revolutions per day: 13.53039730
mean anomaly at epoch: 305.6345°
orbit number at epoch: 90573

The dashed part of the orbit path shows where the satellite is in the earth's shadow,  

DLR